,,,PA_Meas_PMT16A,,PR_Meas_QMR101_102,,RH_Meas_QMH101,,SR_Meas_QMS101,,TA_Meas_QMH101,,GenWind,,GenWind,
date,time,status,PA,status,PR,status,RH,status,SR,status,TA,status,DirAvg,status,SpdAvg,
2010-05-14, 00:00:05,VALID,998.742,VALID,0,VALID,90.9832,VALID,0,VALID,24.9698,VALID,106,VALID,1.375,
2010-05-14, 00:01:05,VALID,998.723,VALID,0,VALID,91.2808,VALID,0,VALID,24.9503,VALID,111,VALID,1.28672,
2010-05-14, 00:02:05,VALID,998.761,VALID,0,VALID,91.5478,VALID,0,VALID,24.9308,VALID,119,VALID,1.18438,
2010-05-14, 00:03:05,VALID,998.741,VALID,0.5,VALID,91.5249,VALID,0,VALID,24.8917,VALID,106,VALID,1.8875,
2010-05-14, 00:04:05,VALID,998.738,VALID,0,VALID,91.5783,VALID,0,VALID,24.8722,VALID,117,VALID,1.28789,
2010-05-14, 00:05:05,VALID,998.732,VALID,0,VALID,91.5249,VALID,0,VALID,24.8313,VALID,107,VALID,1.29023,
2010-05-14, 00:06:05,VALID,998.688,VALID,0,VALID,91.5631,VALID,0,VALID,24.8313,VALID,111,VALID,0.990234,
2010-05-14, 00:07:05,VALID,998.664,VALID,0,VALID,91.4563,VALID,0,VALID,24.8332,VALID,112,VALID,1.31992,
2010-05-14, 00:08:05,VALID,998.621,VALID,0,VALID,91.4715,VALID,0,VALID,24.8332,VALID,117,VALID,1.20156,
2010-05-14, 00:09:05,VALID,998.604,VALID,0,VALID,91.4486,VALID,0,VALID,24.8136,VALID,119,VALID,1.34766,
2010-05-14, 00:10:05,VALID,998.587,VALID,0,VALID,91.5173,VALID,0,VALID,24.7922,VALID,118,VALID,1.28828,
2010-05-14, 00:11:05,VALID,998.535,VALID,0,VALID,91.5326,VALID,0,VALID,24.7922,VALID,120,VALID,1.06133,
2010-05-14, 00:12:05,VALID,998.523,VALID,0,VALID,91.5173,VALID,0,VALID,24.7727,VALID,118,VALID,1.28477,
2010-05-14, 00:13:05,VALID,998.519,VALID,0,VALID,91.5631,VALID,0,VALID,24.7746,VALID,116,VALID,1.22461,
2010-05-14, 00:14:05,VALID,998.504,VALID,0,VALID,91.6394,VALID,0,VALID,24.7941,VALID,116,VALID,1.15273,
2010-05-14, 00:15:05,VALID,998.447,VALID,0,VALID,91.647,VALID,0,VALID,24.7532,VALID,124,VALID,1.25859,
2010-05-14, 00:16:05,VALID,998.432,VALID,0,VALID,91.7462,VALID,0,VALID,24.7746,VALID,129,VALID,0.942187,
2010-05-14, 00:17:05,VALID,998.402,VALID,0,VALID,91.6165,VALID,0,VALID,24.7532,VALID,131,VALID,1.01563,
2010-05-14, 00:18:05,VALID,998.374,VALID,0,VALID,91.6012,VALID,0,VALID,24.7551,VALID,132,VALID,0.81875,
2010-05-14, 00:19:05,VALID,998.355,VALID,0,VALID,91.1892,VALID,0,VALID,24.7551,VALID,126,VALID,1.08047,
2010-05-14, 00:20:05,VALID,998.37,VALID,0,VALID,90.7238,VALID,0,VALID,24.7746,VALID,116,VALID,0.959375,
2010-05-14, 00:21:05,VALID,998.363,VALID,0,VALID,90.5254,VALID,0,VALID,24.7941,VALID,96,VALID,0.903516,
2010-05-14, 00:22:05,VALID,998.357,VALID,0,VALID,90.266,VALID,0,VALID,24.7922,VALID,97,VALID,1.01289,
2010-05-14, 00:23:05,VALID,998.405,VALID,0,VALID,90.3118,VALID,0,VALID,24.8332,VALID,84,VALID,0.792578,
2010-05-14, 00:24:05,VALID,998.373,VALID,0,VALID,90.4263,VALID,0,VALID,24.8313,VALID,81,VALID,0.705078,
2010-05-14, 00:25:05,VALID,998.372,VALID,0,VALID,90.5331,VALID,0,VALID,24.8722,VALID,76,VALID,0.883594,
2010-05-14, 00:26:05,VALID,998.385,VALID,0,VALID,90.8077,VALID,0,VALID,24.8722,VALID,56,VALID,0.774609,
2010-05-14, 00:27:05,VALID,998.368,VALID,0,VALID,90.7925,VALID,0,VALID,24.8527,VALID,56,VALID,0.779297,
2010-05-14, 00:28:05,VALID,998.357,VALID,0,VALID,90.8459,VALID,0,VALID,24.8313,VALID,56,VALID,0.515234,
2010-05-14, 00:29:05,VALID,998.348,VALID,0,VALID,90.9222,VALID,0,VALID,24.8117,VALID,56,VALID,0.484766,
2010-05-14, 00:30:05,VALID,998.335,VALID,0,VALID,90.9146,VALID,0,VALID,24.7922,VALID,56,VALID,0.251172,
2010-05-14, 00:31:05,VALID,998.323,VALID,0,VALID,90.9222,VALID,0,VALID,24.7727,VALID,56,VALID,0.126172,
2010-05-14, 00:32:05,VALID,998.333,VALID,0,VALID,91.0214,VALID,0,VALID,24.7746,VALID,56,VALID,0.0667969,
2010-05-14, 00:33:05,VALID,998.286,VALID,0,VALID,91.1892,VALID,0,VALID,24.7727,VALID,56,VALID,0,
2010-05-14, 00:34:05,VALID,998.295,VALID,0,VALID,91.2884,VALID,0,VALID,24.7532,VALID,56,VALID,0.113672,
2010-05-14, 00:35:05,VALID,998.257,VALID,0,VALID,91.3952,VALID,0,VALID,24.7746,VALID,57,VALID,0.336719,
2010-05-14, 00:36:05,VALID,998.254,VALID,0,VALID,91.38,VALID,0,VALID,24.7532,VALID,57,VALID,0.335938,
2010-05-14, 00:37:05,VALID,998.275,VALID,0,VALID,91.2426,VALID,0,VALID,24.7356,VALID,63,VALID,0.476563,
2010-05-14, 00:38:05,VALID,998.255,VALID,0,VALID,91.2121,VALID,0,VALID,24.7337,VALID,129,VALID,0.664063,
2010-05-14, 00:39:05,VALID,998.284,VALID,0,VALID,91.3037,VALID,0,VALID,24.7532,VALID,142,VALID,0.85,
2010-05-14, 00:40:05,VALID,998.288,VALID,0,VALID,91.4486,VALID,0,VALID,24.7922,VALID,143,VALID,0.784766,
2010-05-14, 00:41:05,VALID,998.259,VALID,0,VALID,91.4868,VALID,0,VALID,24.8117,VALID,153,VALID,1.01602,
2010-05-14, 00:42:05,VALID,998.241,VALID,0,VALID,91.502,VALID,0,VALID,24.8332,VALID,149,VALID,1.1207,
2010-05-14, 00:43:05,VALID,998.234,VALID,0,VALID,91.3113,VALID,0,VALID,24.8136,VALID,149,VALID,1.36719,
2010-05-14, 00:44:05,VALID,998.199,VALID,0,VALID,91.235,VALID,0,VALID,24.8117,VALID,145,VALID,1.18281,
2010-05-14, 00:45:05,VALID,998.198,VALID,0,VALID,91.3113,VALID,0.112286,VALID,24.8313,VALID,144,VALID,0.973047,
2010-05-14, 00:46:05,VALID,998.184,VALID,0,VALID,91.3189,VALID,0,VALID,24.8313,VALID,145,VALID,0.8875,
2010-05-14, 00:47:05,VALID,998.168,VALID,0,VALID,91.1892,VALID,0,VALID,24.8313,VALID,140,VALID,1.09023,
2010-05-14, 00:48:05,VALID,998.128,VALID,0,VALID,91.0824,VALID,0,VALID,24.8136,VALID,139,VALID,0.813672,
2010-05-14, 00:49:05,VALID,998.114,VALID,0,VALID,91.1358,VALID,0,VALID,24.8117,VALID,139,VALID,0.494922,
2010-05-14, 00:50:05,VALID,998.086,VALID,0,VALID,91.2121,VALID,0,VALID,24.7922,VALID,139,VALID,0.383203,
2010-05-14, 00:51:05,VALID,998.102,VALID,0,VALID,91.2731,VALID,0,VALID,24.8136,VALID,138,VALID,0.424609,
2010-05-14, 00:52:05,VALID,998.12,VALID,0,VALID,91.3113,VALID,0,VALID,24.7727,VALID,120,VALID,0.598437,
2010-05-14, 00:53:05,VALID,998.107,VALID,0,VALID,91.4028,VALID,0,VALID,24.7941,VALID,115,VALID,0.623828,
2010-05-14, 00:54:05,VALID,998.141,VALID,0,VALID,91.502,VALID,0,VALID,24.7727,VALID,109,VALID,0.526953,
2010-05-14, 00:55:05,VALID,998.111,VALID,0,VALID,91.5249,VALID,0,VALID,24.7727,VALID,109,VALID,0.410937,
2010-05-14, 00:56:05,VALID,998.094,VALID,0,VALID,91.6165,VALID,0,VALID,24.7727,VALID,109,VALID,0.349609,
2010-05-14, 00:57:05,VALID,998.127,VALID,0,VALID,91.6851,VALID,0,VALID,24.7532,VALID,109,VALID,0.459375,
2010-05-14, 00:58:05,VALID,998.125,VALID,0,VALID,91.7233,VALID,0,VALID,24.7727,VALID,109,VALID,0.716406,
2010-05-14, 00:59:05,VALID,998.135,VALID,0,VALID,91.7309,VALID,0,VALID,24.7727,VALID,109,VALID,0.523438,
2010-05-14, 01:00:05,VALID,998.102,VALID,0,VALID,91.708,VALID,0,VALID,24.7746,VALID,122,VALID,0.592188,
2010-05-14, 01:01:05,VALID,998.112,VALID,0,VALID,91.6165,VALID,0,VALID,24.7941,VALID,122,VALID,0.472266,
2010-05-14, 01:02:05,VALID,998.083,VALID,0,VALID,91.5249,VALID,0,VALID,24.7727,VALID,137,VALID,0.577344,
2010-05-14, 01:03:05,VALID,998.06,VALID,0,VALID,91.6699,VALID,0,VALID,24.7922,VALID,184,VALID,0.869141,
2010-05-14, 01:04:05,VALID,998.061,VALID,0,VALID,91.6088,VALID,0,VALID,24.7922,VALID,162,VALID,0.896484,
2010-05-14, 01:05:05,VALID,998.049,VALID,0,VALID,91.7309,VALID,0,VALID,24.8313,VALID,179,VALID,1.43203,
2010-05-14, 01:06:05,VALID,998.032,VALID,0,VALID,91.8072,VALID,0,VALID,24.8508,VALID,182,VALID,1.4375,
2010-05-14, 01:07:05,VALID,998.027,VALID,0,VALID,91.7996,VALID,0,VALID,24.8703,VALID,187,VALID,1.32539,
2010-05-14, 01:08:05,VALID,998.012,VALID,0,VALID,91.6317,VALID,0,VALID,24.9093,VALID,197,VALID,1.31562,
2010-05-14, 01:09:05,VALID,998.032,VALID,0,VALID,91.5936,VALID,0,VALID,24.9308,VALID,192,VALID,0.945703,
2010-05-14, 01:10:05,VALID,998.03,VALID,0,VALID,91.296,VALID,0,VALID,24.9093,VALID,189,VALID,0.480078,
2010-05-14, 01:11:05,VALID,998.064,VALID,0,VALID,91.0977,VALID,0,VALID,24.9289,VALID,189,VALID,0.252734,
2010-05-14, 01:12:05,VALID,998.072,VALID,0,VALID,91.09,VALID,0,VALID,24.9503,VALID,314,VALID,0.788281,
2010-05-14, 01:13:05,VALID,998.091,VALID,0,VALID,91.1206,VALID,0,VALID,24.9289,VALID,318,VALID,0.625391,
2010-05-14, 01:14:05,VALID,998.109,VALID,0,VALID,91.235,VALID,0,VALID,24.8898,VALID,318,VALID,0.614453,
2010-05-14, 01:15:05,VALID,998.143,VALID,0,VALID,91.3723,VALID,0,VALID,24.8917,VALID,318,VALID,0.438281,
2010-05-14, 01:16:05,VALID,998.181,VALID,0,VALID,91.4257,VALID,0,VALID,24.8313,VALID,318,VALID,0.257031,
2010-05-14, 01:17:05,VALID,998.18,VALID,0,VALID,91.5326,VALID,0,VALID,24.8332,VALID,318,VALID,0.164844,
2010-05-14, 01:18:05,VALID,998.163,VALID,0,VALID,91.6317,VALID,0,VALID,24.8332,VALID,318,VALID,0.408203,
2010-05-14, 01:19:05,VALID,998.165,VALID,0,VALID,91.6165,VALID,0,VALID,24.7941,VALID,314,VALID,0.58125,
2010-05-14, 01:20:05,VALID,998.132,VALID,0,VALID,91.6241,VALID,0,VALID,24.7727,VALID,294,VALID,0.570313,
2010-05-14, 01:21:05,VALID,998.123,VALID,0,VALID,91.6623,VALID,0,VALID,24.7746,VALID,294,VALID,0.464453,
2010-05-14, 01:22:05,VALID,998.09,VALID,0,VALID,91.7309,VALID,0,VALID,24.7746,VALID,294,VALID,0.363281,
2010-05-14, 01:23:05,VALID,998.059,VALID,0,VALID,91.7767,VALID,0,VALID,24.7532,VALID,294,VALID,0.364062,
2010-05-14, 01:24:05,VALID,998.058,VALID,0,VALID,91.7691,VALID,0,VALID,24.7337,VALID,294,VALID,0.466797,
2010-05-14, 01:25:05,VALID,998.035,VALID,0,VALID,91.7385,VALID,0,VALID,24.7356,VALID,294,VALID,0.389453,
2010-05-14, 01:26:05,VALID,998.016,VALID,0,VALID,91.8225,VALID,0,VALID,24.7142,VALID,294,VALID,0.359766,
2010-05-14, 01:27:05,VALID,997.991,VALID,0,VALID,91.8377,VALID,0,VALID,24.7337,VALID,294,VALID,0.228906,
2010-05-14, 01:28:05,VALID,997.987,VALID,0,VALID,91.9445,VALID,0,VALID,24.7142,VALID,294,VALID,0.260156,
2010-05-14, 01:29:05,VALID,997.958,VALID,0,VALID,91.9903,VALID,0,VALID,24.7142,VALID,294,VALID,0.0695312,
2010-05-14, 01:30:05,VALID,997.938,VALID,0,VALID,92.0819,VALID,0,VALID,24.716,VALID,294,VALID,0.110547,
2010-05-14, 01:31:05,VALID,997.957,VALID,0,VALID,92.1353,VALID,0,VALID,24.716,VALID,294,VALID,0.276563,
2010-05-14, 01:32:05,VALID,997.94,VALID,0,VALID,92.1963,VALID,0,VALID,24.6965,VALID,294,VALID,0.264062,
2010-05-14, 01:33:05,VALID,997.962,VALID,0,VALID,92.2345,VALID,0,VALID,24.6751,VALID,294,VALID,0.253906,
2010-05-14, 01:34:05,VALID,997.968,VALID,0,VALID,92.2497,VALID,0,VALID,24.6965,VALID,294,VALID,0.160547,
2010-05-14, 01:35:05,VALID,997.987,VALID,0,VALID,92.2345,VALID,0,VALID,24.6556,VALID,294,VALID,0.203906,
2010-05-14, 01:36:05,VALID,997.964,VALID,0,VALID,92.2268,VALID,0,VALID,24.6361,VALID,294,VALID,0.34375,
2010-05-14, 01:37:05,VALID,997.966,VALID,0,VALID,92.2345,VALID,0,VALID,24.677,VALID,285,VALID,0.383984,
2010-05-14, 01:38:05,VALID,997.943,VALID,0,VALID,92.2345,VALID,0,VALID,24.6556,VALID,262,VALID,0.680859,
2010-05-14, 01:39:05,VALID,997.913,VALID,0,VALID,92.1658,VALID,0,VALID,24.6556,VALID,238,VALID,0.782031,
2010-05-14, 01:40:05,VALID,997.928,VALID,0,VALID,92.1048,VALID,0,VALID,24.6965,VALID,233,VALID,0.841797,
2010-05-14, 01:41:05,VALID,997.897,VALID,0,VALID,92.0437,VALID,0,VALID,24.6751,VALID,233,VALID,0.695313,
2010-05-14, 01:42:05,VALID,997.896,VALID,0,VALID,91.9827,VALID,0,VALID,24.6965,VALID,232,VALID,0.792578,
2010-05-14, 01:43:05,VALID,997.877,VALID,0,VALID,91.9217,VALID,0,VALID,24.6751,VALID,223,VALID,0.967188,
2010-05-14, 01:44:05,VALID,997.863,VALID,0,VALID,91.8911,VALID,0,VALID,24.6946,VALID,218,VALID,0.913672,
2010-05-14, 01:45:05,VALID,997.819,VALID,0,VALID,91.7767,VALID,0,VALID,24.7142,VALID,224,VALID,1.10312,
2010-05-14, 01:46:05,VALID,997.805,VALID,0,VALID,91.6241,VALID,0,VALID,24.7337,VALID,217,VALID,0.964453,
2010-05-14, 01:47:04,VALID,997.788,VALID,0,VALID,91.3876,VALID,0,VALID,24.7532,VALID,205,VALID,1.19062,
2010-05-14, 01:48:04,VALID,997.738,VALID,0,VALID,90.8917,VALID,0,VALID,24.8117,VALID,209,VALID,1.79805,
2010-05-14, 01:49:04,VALID,997.732,VALID,0,VALID,90.5636,VALID,0,VALID,24.8508,VALID,203,VALID,1.41523,
2010-05-14, 01:50:04,VALID,997.692,VALID,0,VALID,90.2584,VALID,0,VALID,24.8703,VALID,207,VALID,1.24492,
2010-05-14, 01:51:04,VALID,997.677,VALID,0,VALID,90.0448,VALID,0,VALID,24.8898,VALID,203,VALID,1.41641,
2010-05-14, 01:52:04,VALID,997.686,VALID,0,VALID,90.0219,VALID,0,VALID,24.9093,VALID,202,VALID,1.21563,
2010-05-14, 01:53:04,VALID,997.694,VALID,0,VALID,89.9685,VALID,0,VALID,24.9289,VALID,195,VALID,0.890234,
2010-05-14, 01:54:04,VALID,997.683,VALID,0,VALID,90.0753,VALID,0,VALID,24.9289,VALID,195,VALID,0.733594,
2010-05-14, 01:55:04,VALID,997.669,VALID,0,VALID,90.0829,VALID,0,VALID,24.9093,VALID,192,VALID,1.00977,
2010-05-14, 01:56:04,VALID,997.688,VALID,0,VALID,90.0371,VALID,0,VALID,24.9308,VALID,183,VALID,0.851563,
2010-05-14, 01:57:04,VALID,997.68,VALID,0,VALID,90.3423,VALID,0,VALID,24.9093,VALID,183,VALID,0.579297,
2010-05-14, 01:58:04,VALID,997.693,VALID,0,VALID,90.5788,VALID,0.112286,VALID,24.9093,VALID,183,VALID,0.534766,
2010-05-14, 01:59:04,VALID,997.704,VALID,0,VALID,90.678,VALID,0,VALID,24.8703,VALID,183,VALID,0.483594,
2010-05-14, 02:00:04,VALID,997.698,VALID,0,VALID,90.8077,VALID,0,VALID,24.8703,VALID,183,VALID,0.582031,
2010-05-14, 02:01:04,VALID,997.729,VALID,0,VALID,90.9069,VALID,0,VALID,24.8508,VALID,183,VALID,0.486719,
2010-05-14, 02:02:04,VALID,997.726,VALID,0,VALID,90.9298,VALID,0,VALID,24.8313,VALID,177,VALID,0.558984,
2010-05-14, 02:03:04,VALID,997.708,VALID,0,VALID,91.0748,VALID,0,VALID,24.8313,VALID,149,VALID,0.716797,
2010-05-14, 02:04:04,VALID,997.716,VALID,0,VALID,91.1358,VALID,0,VALID,24.8332,VALID,149,VALID,0.676953,
2010-05-14, 02:05:04,VALID,997.724,VALID,0,VALID,91.1968,VALID,0,VALID,24.7922,VALID,149,VALID,0.627734,
2010-05-14, 02:06:04,VALID,997.732,VALID,0,VALID,91.3189,VALID,0,VALID,24.7532,VALID,145,VALID,0.785937,
2010-05-14, 02:07:04,VALID,997.749,VALID,0,VALID,91.4486,VALID,0,VALID,24.7142,VALID,145,VALID,0.817969,
2010-05-14, 02:08:04,VALID,997.737,VALID,0,VALID,91.5631,VALID,0,VALID,24.6751,VALID,138,VALID,0.866016,
2010-05-14, 02:09:04,VALID,997.739,VALID,0,VALID,91.7004,VALID,0,VALID,24.6751,VALID,126,VALID,0.789453,
2010-05-14, 02:10:04,VALID,997.741,VALID,0,VALID,91.8225,VALID,0,VALID,24.6361,VALID,124,VALID,0.792188,
2010-05-14, 02:11:04,VALID,997.739,VALID,0,VALID,91.914,VALID,0,VALID,24.6166,VALID,123,VALID,0.776172,
2010-05-14, 02:12:04,VALID,997.752,VALID,0,VALID,91.9903,VALID,0,VALID,24.6166,VALID,111,VALID,0.792969,
2010-05-14, 02:13:04,VALID,997.734,VALID,0,VALID,92.1048,VALID,0,VALID,24.6166,VALID,107,VALID,0.926562,
2010-05-14, 02:14:04,VALID,997.721,VALID,0,VALID,92.2116,VALID,0,VALID,24.6166,VALID,104,VALID,0.819922,
2010-05-14, 02:15:04,VALID,997.685,VALID,0,VALID,92.3031,VALID,0,VALID,24.6361,VALID,104,VALID,0.590625,
2010-05-14, 02:16:04,VALID,997.687,VALID,0,VALID,92.3489,VALID,0,VALID,24.6361,VALID,104,VALID,0.678906,
2010-05-14, 02:17:04,VALID,997.668,VALID,0,VALID,92.3718,VALID,0,VALID,24.6575,VALID,104,VALID,0.735547,
2010-05-14, 02:18:04,VALID,997.648,VALID,0,VALID,92.3794,VALID,0,VALID,24.6166,VALID,104,VALID,0.707422,
2010-05-14, 02:19:04,VALID,997.627,VALID,0,VALID,92.3871,VALID,0,VALID,24.6166,VALID,104,VALID,0.679688,
2010-05-14, 02:20:04,VALID,997.614,VALID,0,VALID,92.4023,VALID,0,VALID,24.638,VALID,104,VALID,0.300781,
2010-05-14, 02:21:04,VALID,997.595,VALID,0,VALID,92.4023,VALID,0,VALID,24.6166,VALID,104,VALID,0,
2010-05-14, 02:22:04,VALID,997.589,VALID,0,VALID,92.4023,VALID,0,VALID,24.5971,VALID,104,VALID,0,
2010-05-14, 02:23:04,VALID,997.571,VALID,0,VALID,92.4328,VALID,0,VALID,24.6184,VALID,104,VALID,0,
2010-05-14, 02:24:04,VALID,997.576,VALID,0,VALID,92.4405,VALID,0,VALID,24.5775,VALID,104,VALID,0,
2010-05-14, 02:25:04,VALID,997.563,VALID,0,VALID,92.4786,VALID,0,VALID,24.5989,VALID,104,VALID,0,
2010-05-14, 02:26:04,VALID,997.546,VALID,0,VALID,92.4939,VALID,0,VALID,24.5775,VALID,104,VALID,0,
2010-05-14, 02:27:04,VALID,997.588,VALID,0,VALID,92.5473,VALID,0,VALID,24.558,VALID,104,VALID,0,
2010-05-14, 02:28:04,VALID,997.59,VALID,0,VALID,92.5549,VALID,0,VALID,24.5599,VALID,104,VALID,0,
2010-05-14, 02:29:04,VALID,997.587,VALID,0,VALID,92.6007,VALID,0,VALID,24.5794,VALID,104,VALID,0,
2010-05-14, 02:30:04,VALID,997.614,VALID,0,VALID,92.5778,VALID,0,VALID,24.5385,VALID,104,VALID,0,
2010-05-14, 02:31:04,VALID,997.6,VALID,0,VALID,92.6388,VALID,0,VALID,24.519,VALID,104,VALID,0,
2010-05-14, 02:32:04,VALID,997.662,VALID,0,VALID,92.6465,VALID,0,VALID,24.519,VALID,104,VALID,0,
2010-05-14, 02:33:04,VALID,997.65,VALID,0,VALID,92.6694,VALID,0,VALID,24.519,VALID,104,VALID,0,
2010-05-14, 02:34:04,VALID,997.638,VALID,0,VALID,92.7151,VALID,0,VALID,24.5404,VALID,104,VALID,0,
2010-05-14, 02:35:04,VALID,997.661,VALID,0,VALID,92.738,VALID,0,VALID,24.5385,VALID,104,VALID,0,
2010-05-14, 02:36:04,VALID,997.66,VALID,0,VALID,92.7609,VALID,0,VALID,24.4995,VALID,104,VALID,0,
2010-05-14, 02:37:04,VALID,997.638,VALID,0,VALID,92.7838,VALID,0,VALID,24.4995,VALID,104,VALID,0,
2010-05-14, 02:38:04,VALID,997.644,VALID,0,VALID,92.7991,VALID,0,VALID,24.4995,VALID,104,VALID,0,
2010-05-14, 02:39:04,VALID,997.626,VALID,0,VALID,92.8372,VALID,0,VALID,24.4995,VALID,104,VALID,0,
2010-05-14, 02:40:04,VALID,997.686,VALID,0,VALID,92.8601,VALID,0,VALID,24.5209,VALID,104,VALID,0,
2010-05-14, 02:41:04,VALID,997.661,VALID,0,VALID,92.8754,VALID,0,VALID,24.4995,VALID,104,VALID,0,
2010-05-14, 02:42:04,VALID,997.686,VALID,0,VALID,92.8754,VALID,0,VALID,24.519,VALID,104,VALID,0,
2010-05-14, 02:43:04,VALID,997.682,VALID,0,VALID,92.9364,VALID,0,VALID,24.5209,VALID,104,VALID,0,
2010-05-14, 02:44:04,VALID,997.729,VALID,0,VALID,92.9593,VALID,0,VALID,24.4995,VALID,104,VALID,0,
2010-05-14, 02:45:04,VALID,997.751,VALID,0,VALID,92.9669,VALID,0,VALID,24.5209,VALID,104,VALID,0,
2010-05-14, 02:46:04,VALID,997.75,VALID,0,VALID,92.9669,VALID,0,VALID,24.4995,VALID,104,VALID,0,
2010-05-14, 02:47:04,VALID,997.746,VALID,0,VALID,92.9593,VALID,0,VALID,24.4995,VALID,104,VALID,0,
2010-05-14, 02:48:04,VALID,997.796,VALID,0,VALID,92.9898,VALID,0,VALID,24.4995,VALID,97,VALID,0,
2010-05-14, 02:49:04,VALID,997.798,VALID,0,VALID,93.0051,VALID,0,VALID,24.5209,VALID,26,VALID,0,
2010-05-14, 02:50:04,VALID,997.787,VALID,0,VALID,93.0203,VALID,0,VALID,24.4995,VALID,26,VALID,0,
2010-05-14, 02:51:04,VALID,997.794,VALID,0,VALID,93.0661,VALID,0,VALID,24.4995,VALID,26,VALID,0,
2010-05-14, 02:52:04,VALID,997.794,VALID,0,VALID,93.0585,VALID,0,VALID,24.4995,VALID,26,VALID,0,
2010-05-14, 02:53:04,VALID,997.78,VALID,0,VALID,93.0661,VALID,0,VALID,24.4995,VALID,26,VALID,0,
2010-05-14, 02:54:04,VALID,997.768,VALID,0,VALID,93.089,VALID,0,VALID,24.48,VALID,26,VALID,0,
2010-05-14, 02:55:04,VALID,997.754,VALID,0,VALID,93.0737,VALID,0,VALID,24.4604,VALID,26,VALID,0,
2010-05-14, 02:56:04,VALID,997.752,VALID,0,VALID,93.089,VALID,0,VALID,24.4409,VALID,26,VALID,0,
2010-05-14, 02:57:04,VALID,997.75,VALID,0,VALID,93.1043,VALID,0,VALID,24.4409,VALID,26,VALID,0,
2010-05-14, 02:58:04,VALID,997.763,VALID,0,VALID,93.1195,VALID,0,VALID,24.4214,VALID,26,VALID,0,
2010-05-14, 02:59:04,VALID,997.756,VALID,0,VALID,93.1577,VALID,0,VALID,24.4214,VALID,26,VALID,0,
2010-05-14, 03:00:04,VALID,997.78,VALID,0,VALID,93.1577,VALID,0,VALID,24.4214,VALID,26,VALID,0,
2010-05-14, 03:01:04,VALID,997.769,VALID,0,VALID,93.1729,VALID,0,VALID,24.4428,VALID,26,VALID,0,
2010-05-14, 03:02:04,VALID,997.735,VALID,0,VALID,93.2034,VALID,0,VALID,24.4019,VALID,26,VALID,0,
2010-05-14, 03:03:04,VALID,997.79,VALID,0,VALID,93.2187,VALID,0,VALID,24.4019,VALID,26,VALID,0,
2010-05-14, 03:04:04,VALID,997.803,VALID,0,VALID,93.234,VALID,0,VALID,24.4019,VALID,26,VALID,0,
2010-05-14, 03:05:04,VALID,997.848,VALID,0,VALID,93.2492,VALID,0,VALID,24.3805,VALID,26,VALID,0,
2010-05-14, 03:06:04,VALID,997.851,VALID,0,VALID,93.2721,VALID,0,VALID,24.4019,VALID,26,VALID,0,
2010-05-14, 03:07:04,VALID,997.839,VALID,0,VALID,93.2721,VALID,0,VALID,24.4233,VALID,26,VALID,0,
2010-05-14, 03:08:04,VALID,997.87,VALID,0,VALID,93.2874,VALID,0,VALID,24.3824,VALID,26,VALID,0,
2010-05-14, 03:09:04,VALID,997.869,VALID,0,VALID,93.2874,VALID,0,VALID,24.3629,VALID,26,VALID,0,
2010-05-14, 03:10:04,VALID,997.866,VALID,0,VALID,93.2568,VALID,0,VALID,24.3842,VALID,26,VALID,0,
2010-05-14, 03:11:04,VALID,997.861,VALID,0,VALID,93.2721,VALID,0,VALID,24.3433,VALID,26,VALID,0,
2010-05-14, 03:12:04,VALID,997.879,VALID,0,VALID,93.2797,VALID,0,VALID,24.3433,VALID,26,VALID,0,
2010-05-14, 03:13:04,VALID,997.836,VALID,0,VALID,93.3103,VALID,0,VALID,24.3433,VALID,26,VALID,0,
2010-05-14, 03:14:04,VALID,997.835,VALID,0,VALID,93.3331,VALID,0,VALID,24.3433,VALID,26,VALID,0,
2010-05-14, 03:15:04,VALID,997.824,VALID,0,VALID,93.3637,VALID,0,VALID,24.3629,VALID,26,VALID,0,
2010-05-14, 03:16:04,VALID,997.807,VALID,0,VALID,93.356,VALID,0,VALID,24.3824,VALID,26,VALID,0,
2010-05-14, 03:17:04,VALID,997.784,VALID,0,VALID,93.3942,VALID,0,VALID,24.4214,VALID,26,VALID,0,
2010-05-14, 03:18:04,VALID,997.777,VALID,0,VALID,93.3942,VALID,0,VALID,24.4214,VALID,26,VALID,0,
2010-05-14, 03:19:04,VALID,997.809,VALID,0,VALID,93.4247,VALID,0,VALID,24.4409,VALID,237,VALID,0,
2010-05-14, 03:20:04,VALID,997.779,VALID,0,VALID,93.4476,VALID,0,VALID,24.4604,VALID,237,VALID,0,
2010-05-14, 03:21:04,VALID,997.789,VALID,0,VALID,93.4476,VALID,0,VALID,24.48,VALID,237,VALID,0,
2010-05-14, 03:22:04,VALID,997.806,VALID,0,VALID,93.44,VALID,0,VALID,24.5013,VALID,236,VALID,0,
2010-05-14, 03:23:04,VALID,997.806,VALID,0,VALID,93.4476,VALID,0,VALID,24.4995,VALID,236,VALID,0,
2010-05-14, 03:24:04,VALID,997.808,VALID,0,VALID,93.4247,VALID,0,VALID,24.4995,VALID,236,VALID,0,
2010-05-14, 03:25:04,VALID,997.811,VALID,0,VALID,93.4171,VALID,0,VALID,24.519,VALID,236,VALID,0.0578125,
2010-05-14, 03:26:04,VALID,997.783,VALID,0,VALID,93.4247,VALID,0,VALID,24.4995,VALID,236,VALID,0,
2010-05-14, 03:27:04,VALID,997.788,VALID,0,VALID,93.3942,VALID,0,VALID,24.4995,VALID,236,VALID,0,
2010-05-14, 03:28:04,VALID,997.827,VALID,0,VALID,93.3789,VALID,0,VALID,24.4995,VALID,236,VALID,0,
2010-05-14, 03:29:04,VALID,997.833,VALID,0,VALID,93.356,VALID,0,VALID,24.4995,VALID,236,VALID,0,
2010-05-14, 03:30:04,VALID,997.847,VALID,0,VALID,93.3408,VALID,0,VALID,24.4995,VALID,236,VALID,0,
2010-05-14, 03:31:04,VALID,997.827,VALID,0,VALID,93.3103,VALID,0,VALID,24.5013,VALID,236,VALID,0,
2010-05-14, 03:32:04,VALID,997.835,VALID,0,VALID,93.3026,VALID,0.112286,VALID,24.4604,VALID,236,VALID,0,
2010-05-14, 03:33:04,VALID,997.846,VALID,0,VALID,93.2874,VALID,0,VALID,24.4604,VALID,236,VALID,0,
2010-05-14, 03:34:04,VALID,997.863,VALID,0,VALID,93.2263,VALID,0,VALID,24.4214,VALID,236,VALID,0,
2010-05-14, 03:35:04,VALID,997.9,VALID,0,VALID,93.2492,VALID,0,VALID,24.4214,VALID,236,VALID,0,
2010-05-14, 03:36:04,VALID,997.911,VALID,0,VALID,93.2721,VALID,0,VALID,24.4037,VALID,236,VALID,0,
2010-05-14, 03:37:04,VALID,997.928,VALID,0,VALID,93.2721,VALID,0,VALID,24.4019,VALID,51,VALID,0.8625,
2010-05-14, 03:38:04,VALID,997.916,VALID,0,VALID,93.2797,VALID,0,VALID,24.3824,VALID,47,VALID,0.905859,
2010-05-14, 03:39:04,VALID,997.915,VALID,0,VALID,93.3179,VALID,0,VALID,24.3824,VALID,47,VALID,0.976953,
2010-05-14, 03:40:04,VALID,997.987,VALID,0,VALID,93.3331,VALID,0,VALID,24.4233,VALID,47,VALID,0.733594,
2010-05-14, 03:41:04,VALID,997.995,VALID,0,VALID,93.356,VALID,0,VALID,24.4037,VALID,47,VALID,0.444141,
2010-05-14, 03:42:04,VALID,997.976,VALID,0,VALID,93.3713,VALID,0,VALID,24.3824,VALID,47,VALID,0.383203,
2010-05-14, 03:43:04,VALID,997.998,VALID,0,VALID,93.3789,VALID,0,VALID,24.3824,VALID,47,VALID,0.619141,
2010-05-14, 03:44:04,VALID,997.967,VALID,0,VALID,93.4018,VALID,0,VALID,24.3824,VALID,47,VALID,0.526172,
2010-05-14, 03:45:04,VALID,997.962,VALID,0,VALID,93.4323,VALID,0,VALID,24.3824,VALID,47,VALID,0.584766,
2010-05-14, 03:46:04,VALID,997.978,VALID,0,VALID,93.4476,VALID,0,VALID,24.4037,VALID,47,VALID,0.473828,
2010-05-14, 03:47:04,VALID,997.977,VALID,0,VALID,93.4781,VALID,0,VALID,24.4214,VALID,47,VALID,0.362109,
2010-05-14, 03:48:04,VALID,998.023,VALID,0,VALID,93.4781,VALID,0,VALID,24.4409,VALID,47,VALID,0.00117188,
2010-05-14, 03:49:04,VALID,998.038,VALID,0,VALID,93.5086,VALID,0,VALID,24.4623,VALID,47,VALID,0.253125,
2010-05-14, 03:50:04,VALID,998.034,VALID,0,VALID,93.501,VALID,0,VALID,24.4409,VALID,47,VALID,0,